{"data":{"norad_id":87843,"epoch":"2026-05-18T13:46:50.714976Z","epoch_age_seconds":626413,"freshness":"AGED","line1":"1 87843U          26138.57419809  .00000775  00000+0  18472-2 0  9995","line2":"2 87843  99.6591 244.5495 0229439 357.9501   2.0656 13.17121861584808","mean_motion":13.17121861,"eccentricity":0.0229439,"inclination_deg":99.6591,"raan_deg":244.5495,"arg_perigee_deg":357.9501,"mean_anomaly_deg":2.0656,"bstar":0.0018472,"rev_number":58480,"period_min":109.32929158937,"perigee_km":1021.9592725936,"apogee_km":1369.507522625,"semimajor_km":7573.8703976093,"source":"CELESTRAK","updated_at":"2026-05-25T13:38:11.679768Z"}}